| time (UTC) | temp F | wind direction | speed MPH | gust MPH | rain 1hr in | rain 24hr in | rain mn in | humidity % | barometer mb |
| 20260502213026 | 51 | 180 | 0.0 | 2.0 | 0.00 | 0.04 | 0.04 | 94 | 1010.0 |
| 20260502211512 | 51 | 165 | 0.0 | 2.0 | 0.00 | 0.04 | 0.04 | 94 | 1010.1 |
| 20260502210011 | 50 | 165 | 0.0 | 2.0 | 0.00 | 0.04 | 0.04 | 94 | 1010.5 |
| 20260502204515 | 50 | 188 | 0.0 | 2.0 | 0.00 | 0.04 | 0.04 | 94 | 1010.5 |
| 20260502203013 | 51 | 159 | 0.0 | 3.0 | 0.00 | 0.04 | 0.04 | 94 | 1010.5 |
| 20260502201513 | 50 | 196 | 0.0 | 3.0 | 0.00 | 0.04 | 0.04 | 94 | 1010.5 |
| 20260502200012 | 50 | 207 | 0.0 | 2.0 | 0.00 | 0.04 | 0.04 | 94 | 1010.4 |
| 20260502194509 | 50 | 199 | 0.0 | 5.0 | 0.00 | 0.04 | 0.04 | 93 | 1010.3 |
| 20260502193008 | 50 | 202 | 0.0 | 5.0 | 0.00 | 0.04 | 0.04 | 94 | 1010.3 |
| 20260502191507 | 50 | 212 | 1.0 | 5.0 | 0.00 | 0.04 | 0.04 | 93 | 1010.2 |
| 20260502190005 | 51 | 159 | 2.0 | 6.0 | 0.00 | 0.04 | 0.04 | 93 | 1010.3 |
| 20260502184506 | 51 | 169 | 2.0 | 8.0 | 0.00 | 0.04 | 0.04 | 93 | 1010.2 |
| 20260502183004 | 51 | 167 | 1.0 | 5.0 | 0.00 | 0.04 | 0.04 | 93 | 1010.1 |
| 20260502181605 | 51 | 169 | 0.0 | 5.0 | 0.00 | 0.04 | 0.04 | 93 | 1010.2 |
| 20260502180114 | 51 | 192 | 0.0 | 3.0 | 0.00 | 0.04 | 0.04 | 93 | 1010.3 |
| 20260502163009 | 52 | 138 | 1.0 | 3.0 | 0.04 | 0.04 | 0.04 | 87 | 1010.3 |
| 20260502161504 | 53 | 195 | 0.0 | 2.0 | 0.03 | 0.03 | 0.03 | 87 | 1010.7 |
| 20260502151528 | 58 | 175 | 5.0 | 10.0 | 0.00 | 0.00 | 0.00 | 70 | 1011.3 |
| 20260502123010 | 58 | 161 | 4.0 | 8.0 | 0.00 | 0.00 | 0.00 | 75 | 1012.4 |
| 20260502121509 | 59 | 151 | 5.0 | 8.0 | 0.00 | 0.00 | 0.00 | 76 | 1012.6 |
| 20260502114555 | 59 | 168 | 5.0 | 8.0 | 0.00 | 0.00 | 0.00 | 77 | 1012.7 |
| 20260502113054 | 58 | 135 | 5.0 | 9.0 | 0.00 | 0.00 | 0.00 | 77 | 1012.7 |
| 20260502110047 | 57 | 148 | 4.0 | 7.0 | 0.00 | 0.00 | 0.00 | 79 | 1012.9 |
| 20260502104545 | 56 | 173 | 3.0 | 6.0 | 0.00 | 0.00 | 0.00 | 81 | 1013.1 |
| 20260502103044 | 55 | 140 | 3.0 | 7.0 | 0.00 | 0.00 | 0.00 | 80 | 1013.3 |
| 20260502101546 | 55 | 142 | 2.0 | 5.0 | 0.00 | 0.00 | 0.00 | 79 | 1013.4 |
| 20260502070050 | 49 | 257 | 1.0 | 2.0 | 0.00 | 0.00 | 0.00 | 82 | 1014.6 |
| 20260502064546 | 48 | 260 | 0.0 | 2.0 | 0.00 | 0.00 | 0.00 | 85 | 1014.6 |
| 20260502063042 | 46 | 257 | 0.0 | 0.0 | 0.00 | 0.00 | 0.00 | 88 | 1014.7 |
| 20260502061534 | 45 | 279 | 0.0 | 1.0 | 0.00 | 0.00 | 0.00 | 92 | 1014.7 |
| 20260502060033 | 44 | 259 | 0.0 | 0.0 | 0.00 | 0.00 | 0.00 | 94 | 1014.9 |
| 20260502054532 | 43 | 258 | 0.0 | 0.0 | 0.00 | 0.00 | 0.00 | 93 | 1015.0 |
| 20260502053031 | 42 | 259 | 0.0 | 1.0 | 0.00 | 0.00 | 0.00 | 94 | 1015.1 |
| 20260502051530 | 41 | 257 | 0.0 | 2.0 | 0.00 | 0.00 | 0.00 | 94 | 1015.1 |
| 20260502050033 | 41 | 259 | 0.0 | 3.0 | 0.00 | 0.00 | 0.00 | 94 | 1015.1 |
| 20260502044526 | 40 | 257 | 1.0 | 3.0 | 0.00 | 0.00 | 0.00 | 94 | 1015.3 |
| 20260502043025 | 40 | 258 | 0.0 | 0.0 | 0.00 | 0.00 | 0.00 | 93 | 1015.4 |
| 20260502041533 | 40 | 279 | 2.0 | 4.0 | 0.00 | 0.00 | 0.00 | 93 | 1015.5 |
| 20260502040027 | 40 | 275 | 2.0 | 5.0 | 0.00 | 0.00 | 0.00 | 94 | 1015.8 |
| 20260502034535 | 40 | 267 | 3.0 | 6.0 | 0.00 | 0.00 | 0.00 | 94 | 1016.0 |
| 20260502033023 | 40 | 263 | 2.0 | 3.0 | 0.00 | 0.00 | 0.00 | 93 | 1016.3 |
| 20260502031514 | 40 | 242 | 2.0 | 6.0 | 0.00 | 0.00 | 0.00 | 93 | 1016.6 |
| 20260502030013 | 40 | 288 | 2.0 | 4.0 | 0.00 | 0.00 | 0.00 | 93 | 1016.7 |
| 20260502024515 | 40 | 267 | 2.0 | 4.0 | 0.00 | 0.00 | 0.00 | 93 | 1017.0 |
| 20260502023008 | 40 | 265 | 3.0 | 7.0 | 0.00 | 0.00 | 0.00 | 92 | 1017.2 |
| 20260502021510 | 41 | 228 | 2.0 | 4.0 | 0.00 | 0.00 | 0.00 | 92 | 1017.5 |
| 20260502020008 | 41 | 228 | 2.0 | 3.0 | 0.00 | 0.00 | 0.00 | 92 | 1017.8 |
| 20260502014519 | 41 | 229 | 0.0 | 1.0 | 0.00 | 0.00 | 0.00 | 91 | 1018.1 |
| 20260502013002 | 41 | 230 | 0.0 | 2.0 | 0.00 | 0.00 | 0.00 | 91 | 1018.0 |
| 20260502011505 | 42 | 229 | 0.0 | 2.0 | 0.00 | 0.00 | 0.00 | 90 | 1018.2 |
| 20260502010002 | 42 | 229 | 1.0 | 2.0 | 0.00 | 0.00 | 0.00 | 90 | 1018.3 |
| 20260502004605 | 42 | 248 | 0.0 | 3.0 | 0.00 | 0.00 | 0.00 | 90 | 1018.5 |
| 20260502003055 | 43 | 246 | 0.0 | 3.0 | 0.00 | 0.00 | 0.00 | 91 | 1018.8 |
| 20260502001552 | 43 | 227 | 3.0 | 4.0 | 0.00 | 0.00 | 0.00 | 90 | 1019.0 |
| 20260502000059 | 43 | 225 | 2.0 | 4.0 | 0.00 | 0.00 | 0.00 | 91 | 1019.3 |
| 20260501234549 | 43 | 202 | 2.0 | 4.0 | 0.00 | 0.00 | 0.00 | 90 | 1019.4 |
| 20260501233043 | 44 | 185 | 0.0 | 0.0 | 0.00 | 0.00 | 0.00 | 90 | 1019.7 |
| 20260501231539 | 44 | 185 | 0.0 | 0.0 | 0.00 | 0.00 | 0.00 | 89 | 1019.8 |
| 20260501230034 | 45 | 186 | 0.0 | 0.0 | 0.00 | 0.00 | 0.00 | 89 | 1020.1 |
| 20260501224531 | 45 | 198 | 0.0 | 1.0 | 0.00 | 0.00 | 0.00 | 89 | 1020.3 |
| 20260501223029 | 46 | 199 | 0.0 | 3.0 | 0.00 | 0.00 | 0.00 | 88 | 1020.5 |
| 20260501221535 | 46 | 209 | 0.0 | 2.0 | 0.00 | 0.00 | 0.00 | 87 | 1020.6 |
| 20260501220034 | 47 | 182 | 0.0 | 2.0 | 0.00 | 0.00 | 0.00 | 86 | 1020.8 |
| 20260501214537 | 47 | 184 | 0.0 | 2.0 | 0.00 | 0.00 | 0.00 | 86 | 1020.9 |